Hourly Weather Roundup
Issued by NWS Central Illinois

Home | Current Version | Previous Version | Text Only | Print | Product List | Glossary On
Versions: 1 2 3 4 5 6 7 8 9 10 11 12 13 14 15 16 17 18 19 20 21 22 23 24 25 26 27 28 29 30 31 32 33 34 35 36 37 38 39 40 41 42 43 44 45 46 47 48 49 50
000
NZUS43 KILX 290810
HWRILX

AREA WEATHER ROUNDUP
NATIONAL WEATHER SERVICE, LINCOLN IL
200 AM CST THU JAN 29 2015


CITY           SKY/WX    TMP DP  RH WIND       PRES   REMARKS
BLOOMINGTON    MOCLDY    37  32  82 S18       29.72F WCI  27
CHAMPAIGN      MOCLDY    37  30  75 S17G26    29.77F WCI  27
DECATUR        MOCLDY    42  32  67 S17G29    29.75F WCI  34
FLORA          CLOUDY    41  33  74 S10       29.86S WCI  35
GALESBURG      PTCLDY    39  34  83 S10       29.67S WCI  32
JACKSONVILLE   CLOUDY    44  36  73 S12       29.72F
LACON          MOCLDY    38  32  77 S7        29.69S WCI  33
LAWRENCEVILLE  CLOUDY    40  33  76 S18       29.88F WCI  31
LITCHFIELD     CLOUDY    40  33  74 S14       29.76F WCI  33
$$


CITY           SKY/WX    TMP DP  RH WIND       PRES   REMARKS
LINCOLN        CLOUDY    41  33  73 S13G18    29.73R WCI  34
MACOMB         PTCLDY    37  34  87 S9        29.70S WCI  31
MATTOON        CLOUDY    39  29  67 S15       29.79F WCI  31
MT CARMEL AP   CLOUDY    43  32  65 S13       29.88F
OLNEY-NOBLE AP CLOUDY    41  32  70 S8G17     29.86F
PARIS          CLOUDY    39  30  70 S15G30    29.83F WCI  31
PEORIA         MOCLDY    38  32  79 S10       29.69F WCI  31
PONTIAC        PTCLDY    37  32  81 S17       29.72F WCI  27
RANTOUL        MOCLDY    37  31  78 S10       29.77F WCI  30
ROBINSON       CLOUDY    39  32  76 S14       29.88F WCI  31
SPRINGFIELD    CLOUDY    43  34  70 S21       29.73F WCI  34
TAYLORVILLE    CLOUDY    41  32  70 S20G25    29.76F WCI  32
$$

...REGIONAL REPORTS...


CITY           SKY/WX    TMP DP  RH WIND       PRES   REMARKS
CHICAGO O`HARE CLOUDY    35  26  69 S10       29.75F WCI  27
KANKAKEE       CLOUDY    38  29  70 S15       29.76F WCI  29
MOLINE         PTCLDY    37  31  78 NW5       29.67R WCI  33
MOUNT VERNON   CLOUDY    46  34  61 S20       29.85F
PITTSFIELD     CLOUDY    49  38  66 SW8       29.73R
QUINCY         PTCLDY    50  37  61 W18G30    29.72R
ROCKFORD       CLOUDY    34  27  75 SE6       29.74S WCI  29
$$


CITY           SKY/WX    TMP DP  RH WIND       PRES   REMARKS
BURLINGTON     CLEAR     41  35  79 W12       29.67R WCI  34
CEDAR RAPIDS   CLOUDY    32  31  96 NW12      29.74R FOG     WCI  23
DES MOINES     CLOUDY    37  31  78 N17G35    29.90R WCI  27
KIRKSVILLE     LGT RAIN  43  36  76 NW20G38   29.81R WCI  34
OTTUMWA        CLOUDY    36  33  89 NW18G29   29.80R WCI  26
ST LOUIS       CLOUDY    54  39  57 SW15      29.78R
$$


CITY           SKY/WX    TMP DP  RH WIND       PRES   REMARKS
TERRE HAUTE    CLOUDY    39  27  62 S14       29.87F WCI  31
EVANSVILLE     CLOUDY    44  32  62 S7        29.95F
INDIANAPOLIS   CLOUDY    34  19  54 S13       29.90F WCI  25
LAFAYETTE      CLOUDY    37  22  54 S10       29.83F WCI  30
MADISON        CLOUDY    32  26  78 N5        29.76S WCI  27
MILWAUKEE      CLOUDY    33  24  69 SE3       29.77F
$$




USA.gov is the U.S. government's official web portal to all federal, state and local government web resources and services.